Врубовский

Украина / Луганская область     48°25′07″N   39°07′09″E
темп.,
°C
ветер,
м/с
пор.,
м/с
влажн.,
%
обл.,
%
осадки,
мм/ч
давл.,
гПа
погр.,
м
15 мая, сб
сб1500:00+17ю22847 0.1 101112
03:00+14зюз22645 0.3 101214
06:00+15з3577100 0.1 1013107
09:00+20зсз11615 0.1 1013271
12:00+25юз34428 0.0 10131418
15:00+26зюз34398 0.0 10131848
18:00+25юз235145 0.0 1013188
21:00+19зюз226248 0.0 101312
16 мая, вс
вс1600:00+17сз226875 0.0 101311
03:00+15ссз227583 0.0 101311
06:00+16с22786 0.0 101349
09:00+22св46686 0.0 1012529
12:00+26всв665397 0.0 10111176
15:00+26вюв683997 0.0 10101206
18:00+24в595455 0.0 1009392
21:00+19всв357099 0.0 100874
17 мая, пн
пн1700:00+16в3775100 0.0 1007110
03:00+15в312665 0.0 1006217
06:00+14в312706 0.0 1007321
09:00+21юв710514 0.0 1007656
12:00+25ююв784797 0.0 10071078
15:00+25юв455298 0.0 10071048
18:00+23ююз5870100 0.0 1007422
21:00+18ю51279100 0.0 1009445
18 мая, вт
вт1800:00+16юз2686100 0.0 1008231
03:00+14ююз369290 0.0 1010164
06:00+15юз51089100 0.0 1010309
09:00+17юз347884 0.2 1011605
12:00+22юз455427 0.2 10101637
15:00+23ююз6752100 0.3 10101811
18:00+21ююз676242 0.0 1010944
21:00+16ююз61179100 0.1 1011302
19 мая, ср
ср1900:00+15ююз614888 0.0 1011407
03:00+14ююз61093100 0.0 1011360
06:00+15ююз410896 0.2 1011385
09:00+19юз6868100 0.2 10121018
12:00+22юз6855100 0.2 10121761
15:00+23юз4646100 0.2 10112116
18:00+15зсз4793100 3.4 1012268
21:00+15з1196100 4.4 1012104